• In United Kingdom
  • List of Countries
  • For 7 days
  • Water Temperature
  • Satellite Maps
  • Weather Map
  • Weather Widgets
  • user-avatar
    Login

    Hourly Weather Tonton

    Today, 19 September, Wednesday

    Time Temperature Precipitation Wind Pressure Humidity
    00:00 +16°C° 0 mm 5 mps 756 mmHg 93%
    01:00 +16°C° 0 mm 5 mps 756 mmHg 94%
    02:00 +16°C° 0 mm 6 mps 756 mmHg 94%
    03:00 +16°C° 0 mm 6 mps 756 mmHg 94%
    04:00 +16°C° 0 mm 7 mps 756 mmHg 94%
    05:00 +15°C° 0 mm 7 mps 755 mmHg 93%
    06:00 +16°C° 0 mm 7 mps 755 mmHg 94%
    07:00 +17°C° 0 mm 8 mps 755 mmHg 89%
    08:00 +18°C° 0 mm 10 mps 755 mmHg 84%
    09:00 +19°C° 0 mm 11 mps 755 mmHg 79%
    10:00 +19°C° 0.1 mm 11 mps 755 mmHg 76%
    11:00 +21°C° 0.1 mm 12 mps 755 mmHg 74%
    12:00 +21°C° 0.1 mm 12 mps 756 mmHg 71%
    13:00 +19°C° 0.1 mm 11 mps 756 mmHg 74%
    14:00 +19°C° 0.1 mm 10 mps 756 mmHg 77%
    15:00 +18°C° 0.1 mm 9 mps 757 mmHg 80%
    16:00 +17°C° 0 mm 8 mps 757 mmHg 80%
    17:00 +16°C° 0 mm 7 mps 757 mmHg 80%
    18:00 +16°C° 0 mm 6 mps 758 mmHg 80%
    19:00 +15°C° 0 mm 5 mps 758 mmHg 82%
    20:00 +14°C° 0 mm 5 mps 759 mmHg 83%
    21:00 +14°C° 0 mm 4 mps 759 mmHg 85%
    22:00 +14°C° 0.2 mm 4 mps 759 mmHg 87%
    23:00 +14°C° 0.2 mm 4 mps 758 mmHg 89%

    Tomorrow, 20 September, Thursday

    Time Temperature Precipitation Wind Pressure Humidity
    00:00 +14°C° 0.2 mm 5 mps 758 mmHg 92%
    01:00 +15°C° 0.4 mm 5 mps 757 mmHg 92%
    02:00 +16°C° 0.4 mm 6 mps 757 mmHg 92%
    03:00 +16°C° 0.4 mm 7 mps 757 mmHg 93%
    04:00 +16°C° 0.2 mm 7 mps 757 mmHg 93%
    05:00 +16°C° 0.2 mm 7 mps 756 mmHg 93%
    06:00 +16°C° 0.2 mm 7 mps 756 mmHg 93%
    07:00 +17°C° 1.8 mm 8 mps 756 mmHg 93%
    08:00 +17°C° 1.8 mm 8 mps 756 mmHg 93%
    09:00 +17°C° 1.8 mm 8 mps 756 mmHg 93%
    10:00 +17°C° 1 mm 9 mps 755 mmHg 92%
    11:00 +17°C° 1 mm 9 mps 754 mmHg 91%
    12:00 +17°C° 1 mm 10 mps 754 mmHg 91%
    13:00 +17°C° 0.1 mm 10 mps 753 mmHg 89%
    14:00 +18°C° 0.1 mm 10 mps 752 mmHg 88%
    15:00 +18°C° 0.1 mm 11 mps 752 mmHg 87%
    16:00 +18°C° 1.2 mm 11 mps 751 mmHg 88%
    17:00 +18°C° 1.2 mm 12 mps 750 mmHg 90%
    18:00 +17°C° 1.2 mm 12 mps 749 mmHg 91%
    19:00 +17°C° 3.5 mm 12 mps 748 mmHg 92%
    20:00 +17°C° 3.5 mm 12 mps 748 mmHg 92%
    21:00 +17°C° 3.5 mm 12 mps 747 mmHg 92%
    22:00 +14°C° 0.8 mm 12 mps 748 mmHg 89%
    23:00 +12°C° 0.8 mm 12 mps 749 mmHg 86%

    Day after tomorrow, 21 September, Friday

    Time Temperature Precipitation Wind Pressure Humidity
    00:00 +9°C° 0.8 mm 11 mps 750 mmHg 83%
    01:00 +8°C° 0 mm 10 mps 751 mmHg 82%
    02:00 +8°C° 0 mm 9 mps 752 mmHg 81%
    03:00 +9°C° 0 mm 8 mps 753 mmHg 80%
    04:00 +9°C° 0 mm 8 mps 753 mmHg 78%
    05:00 +9°C° 0 mm 7 mps 754 mmHg 77%
    06:00 +9°C° 0 mm 7 mps 754 mmHg 75%
    07:00 +10°C° 0 mm 8 mps 755 mmHg 71%
    08:00 +11°C° 0 mm 10 mps 756 mmHg 67%
    09:00 +12°C° 0 mm 11 mps 756 mmHg 63%
    10:00 +13°C° 0.1 mm 10 mps 757 mmHg 62%
    11:00 +13°C° 0.1 mm 10 mps 758 mmHg 62%
    12:00 +14°C° 0.1 mm 10 mps 759 mmHg 61%
    13:00 +14°C° 0.1 mm 10 mps 759 mmHg 61%
    14:00 +14°C° 0.1 mm 10 mps 759 mmHg 61%
    15:00 +15°C° 0.1 mm 9 mps 759 mmHg 61%
    16:00 +13°C° 0 mm 8 mps 759 mmHg 65%
    17:00 +12°C° 0 mm 7 mps 760 mmHg 68%
    18:00 +11°C° 0 mm 6 mps 760 mmHg 72%
    19:00 +10°C° 0 mm 6 mps 761 mmHg 74%
    20:00 +10°C° 0 mm 6 mps 761 mmHg 76%
    21:00 +9°C° 0 mm 5 mps 762 mmHg 78%
    22:00 +9°C° 0 mm 5 mps 762 mmHg 79%
    23:00 +9°C° 0 mm 5 mps 762 mmHg 81%

    22 September, Saturday

    Time Temperature Precipitation Wind Pressure Humidity
    00:00 +8°C° 0 mm 5 mps 763 mmHg 82%
    01:00 +8°C° 0 mm 4 mps 763 mmHg 84%
    02:00 +8°C° 0 mm 4 mps 763 mmHg 85%
    03:00 +8°C° 0 mm 4 mps 763 mmHg 86%
    04:00 +9°C° 0 mm 3 mps 763 mmHg 87%
    05:00 +9°C° 0 mm 3 mps 764 mmHg 87%
    06:00 +9°C° 0 mm 3 mps 764 mmHg 87%
    07:00 +10°C° 0 mm 3 mps 764 mmHg 82%
    08:00 +11°C° 0 mm 3 mps 764 mmHg 76%
    09:00 +13°C° 0 mm 3 mps 764 mmHg 71%
    10:00 +14°C° 0 mm 3 mps 764 mmHg 68%
    11:00 +14°C° 0 mm 3 mps 764 mmHg 65%
    12:00 +16°C° 0 mm 3 mps 764 mmHg 62%
    13:00 +16°C° 0.1 mm 3 mps 764 mmHg 64%
    14:00 +14°C° 0.1 mm 3 mps 764 mmHg 67%
    15:00 +15°C° 0.1 mm 2 mps 763 mmHg 70%
    16:00 +14°C° 0.4 mm 2 mps 763 mmHg 75%
    17:00 +13°C° 0.4 mm 2 mps 762 mmHg 81%
    18:00 +12°C° 0.4 mm 2 mps 761 mmHg 87%
    19:00 +11°C° 1.7 mm 3 mps 760 mmHg 89%
    20:00 +9°C° 1.7 mm 5 mps 760 mmHg 91%
    21:00 +9°C° 1.7 mm 6 mps 759 mmHg 93%
    22:00 +9°C° 1.8 mm 7 mps 756 mmHg 93%
    23:00 +10°C° 1.8 mm 9 mps 754 mmHg 93%

    23 September, Sunday

    Time Temperature Precipitation Wind Pressure Humidity
    00:00 +9°C° 1.8 mm 11 mps 752 mmHg 92%
    01:00 +12°C° 2.6 mm 11 mps 749 mmHg 93%
    02:00 +13°C° 2.6 mm 11 mps 746 mmHg 94%
    03:00 +15°C° 2.6 mm 12 mps 743 mmHg 96%
    04:00 +15°C° 2.1 mm 12 mps 741 mmHg 92%
    05:00 +15°C° 2.1 mm 12 mps 738 mmHg 89%
    06:00 +15°C° 2.1 mm 12 mps 735 mmHg 86%
    07:00 +14°C° 0.6 mm 11 mps 734 mmHg 87%
    08:00 +15°C° 0.6 mm 9 mps 733 mmHg 88%
    09:00 +13°C° 0.6 mm 8 mps 731 mmHg 89%
    10:00 +13°C° 0.9 mm 10 mps 732 mmHg 88%
    11:00 +13°C° 0.9 mm 12 mps 733 mmHg 87%
    12:00 +13°C° 0.9 mm 14 mps 734 mmHg 86%
    13:00 +11°C° 0.1 mm 16 mps 736 mmHg 82%
    14:00 +10°C° 0.1 mm 17 mps 739 mmHg 79%
    15:00 +10°C° 0.1 mm 19 mps 741 mmHg 76%
    16:00 +8°C° 0.3 mm 19 mps 745 mmHg 74%
    17:00 +9°C° 0.3 mm 18 mps 749 mmHg 73%
    18:00 +9°C° 0.3 mm 17 mps 752 mmHg 71%
    19:00 +7°C° 0 mm 16 mps 755 mmHg 68%
    20:00 +8°C° 0 mm 14 mps 758 mmHg 65%
    21:00 +8°C° 0 mm 13 mps 761 mmHg 61%
    22:00 +8°C° 0 mm 12 mps 762 mmHg 62%
    23:00 +7°C° 0 mm 11 mps 763 mmHg 62%

    24 September, Monday

    Time Temperature Precipitation Wind Pressure Humidity
    00:00 +7°C° 0 mm 10 mps 765 mmHg 63%
    01:00 +7°C° 0 mm 9 mps 765 mmHg 65%
    02:00 +7°C° 0 mm 8 mps 766 mmHg 67%
    03:00 +6°C° 0 mm 7 mps 767 mmHg 69%
    04:00 +6°C° 0 mm 7 mps 768 mmHg 70%
    05:00 +7°C° 0 mm 6 mps 769 mmHg 72%
    06:00 +5°C° 0 mm 6 mps 770 mmHg 73%
    07:00 +7°C° 0 mm 6 mps 770 mmHg 69%
    08:00 +8°C° 0 mm 7 mps 771 mmHg 66%
    09:00 +9°C° 0 mm 7 mps 771 mmHg 62%
    10:00 +10°C° 0.1 mm 7 mps 772 mmHg 62%
    11:00 +11°C° 0.1 mm 7 mps 772 mmHg 62%
    12:00 +11°C° 0.1 mm 6 mps 773 mmHg 62%
    13:00 +13°C° 0.1 mm 6 mps 773 mmHg 63%
    14:00 +13°C° 0.1 mm 6 mps 773 mmHg 64%
    15:00 +12°C° 0.1 mm 7 mps 773 mmHg 64%
    16:00 +11°C° 0 mm 6 mps 773 mmHg 68%
    17:00 +10°C° 0 mm 5 mps 773 mmHg 72%
    18:00 +9°C° 0 mm 5 mps 774 mmHg 76%
    19:00 +8°C° 0 mm 4 mps 774 mmHg 78%
    20:00 +7°C° 0 mm 4 mps 775 mmHg 80%
    21:00 +8°C° 0 mm 3 mps 775 mmHg 81%
    22:00 +7°C° 0 mm 3 mps 775 mmHg 83%
    23:00 +7°C° 0 mm 3 mps 775 mmHg 84%
    Show more